Starlink 11248

decayed
NORAD ID: 60914 Int'l Des: 2024-154 Owner: SPXS Country: US Constellation: starlink
LEOCIRCULAR
グループ

Starlink 11248について

説明を読み込み中...

高度履歴

Altitude vs Time

uPlot chart will show altitude changes over time

軌道要素

1 60914U 24154M 25364.11832603 .01553469 18505-2 13582-2 0 9995
2 60914 53.1337 106.2938 0008206 337.1526 22.9143 16.12857607 77688
Epoch: Dec 30, 2025 • Age: 1775 hours

現在のステータス

Position data unavailable
打ち上げ日 Aug 31, 2024
運用期間 1.5 years
落下予定日 Dec 30, 2025
タイプ internet

技術仕様

分類 Payload
質量 960.00 kg
乾燥質量 910.00 kg
総質量 960.00 kg
長さ 0.30 m
直径 4.10 m
スパン 29.00 m
形状 Box + pan
製造者 SPXS
バスタイプ Starlink V2MD
フェーズステータス Unknown Transfer Status
所有者/国 SPXS/US

大規模コンステレーション

Loading constellations...